Location: Brantley
(31.5822°N, 86.2569°W)
Time: 01:23:15
(UTC+00:00)

Vanguard 2 - Pass Details

Date: 19 February 2026
Orbit: 553 x 2896 km, 32.9° (Epoch: 10 March)

Event Time Altitude Azimuth Distance (km) Brightness Sun altitude
Rises 17:02:44 0° 270° (W) 2,746 10.2 45.3°
Reaches altitude 10° 17:05:18 10° 251° (WSW) 1,942 9.7 45.4°
Maximum altitude 17:08:25 19° 204° (SSW) 1,598 10.0 45.6°
Drops below altitude 10° 17:12:14 10° 159° (SSE) 2,439 11.1 45.9°
Sets 17:16:00 0° 143° (SE) 3,752 11.7 46.1°
